When you browse on this site, cookies collect data to enhance your experience and personalize the content and advertising you see.
Visit our Privacy Policy to learn more. By continuing to use the site, you agree to this use of cookies and data.
  • In Hungary
  • List of Countries
  • For 7 days
  • Water Temperature
  • Satellite Maps
  • Weather Map
  • News
  • Weather Widgets
  • user-avatar
    Login

    Hourly Weather Tarakanovo

    Today, 20 May, Monday

    Time Temperature Precipitation Wind Pressure Humidity
    00:00 +15°C° 0 mm 2 mps 757 mmHg 77%
    01:00 +15°C° 0 mm 2 mps 757 mmHg 80%
    02:00 +15°C° 0 mm 2 mps 757 mmHg 84%
    03:00 +15°C° 0 mm 2 mps 757 mmHg 84%
    04:00 +15°C° 0 mm 2 mps 757 mmHg 85%
    05:00 +15°C° 0 mm 2 mps 757 mmHg 85%
    06:00 +17°C° 0 mm 2 mps 757 mmHg 79%
    07:00 +19°C° 0 mm 2 mps 757 mmHg 72%
    08:00 +21°C° 0 mm 2 mps 757 mmHg 64%
    09:00 +22°C° 0 mm 3 mps 757 mmHg 58%
    10:00 +25°C° 0 mm 3 mps 757 mmHg 53%
    11:00 +26°C° 0 mm 4 mps 757 mmHg 47%
    12:00 +27°C° 0 mm 4 mps 757 mmHg 46%
    13:00 +27°C° 0 mm 4 mps 757 mmHg 45%
    14:00 +28°C° 0 mm 4 mps 756 mmHg 44%
    15:00 +28°C° 0 mm 3 mps 756 mmHg 45%
    16:00 +27°C° 0 mm 3 mps 756 mmHg 47%
    17:00 +27°C° 0 mm 3 mps 755 mmHg 49%
    18:00 +25°C° 0 mm 3 mps 755 mmHg 56%
    19:00 +23°C° 0 mm 2 mps 755 mmHg 63%
    20:00 +20°C° 0 mm 2 mps 755 mmHg 70%
    21:00 +19°C° 0 mm 2 mps 755 mmHg 72%
    22:00 +18°C° 0 mm 3 mps 756 mmHg 73%
    23:00 +17°C° 0 mm 3 mps 756 mmHg 74%

    Tomorrow, 21 May, Tuesday

    Time Temperature Precipitation Wind Pressure Humidity
    00:00 +17°C° 0 mm 2 mps 756 mmHg 76%
    01:00 +16°C° 0 mm 2 mps 756 mmHg 78%
    02:00 +16°C° 0 mm 2 mps 756 mmHg 80%
    03:00 +16°C° 0 mm 2 mps 755 mmHg 81%
    04:00 +16°C° 0 mm 2 mps 755 mmHg 82%
    05:00 +16°C° 0 mm 3 mps 755 mmHg 82%
    06:00 +18°C° 0 mm 3 mps 755 mmHg 78%
    07:00 +19°C° 0 mm 3 mps 755 mmHg 74%
    08:00 +21°C° 0 mm 3 mps 755 mmHg 70%
    09:00 +22°C° 0 mm 3 mps 755 mmHg 66%
    10:00 +24°C° 0 mm 3 mps 754 mmHg 62%
    11:00 +25°C° 0 mm 3 mps 754 mmHg 58%
    12:00 +26°C° 0 mm 3 mps 754 mmHg 55%
    13:00 +27°C° 0 mm 3 mps 754 mmHg 52%
    14:00 +27°C° 0 mm 2 mps 753 mmHg 49%
    15:00 +26°C° 0.1 mm 2 mps 753 mmHg 56%
    16:00 +25°C° 0.1 mm 1 mps 753 mmHg 63%
    17:00 +25°C° 0.1 mm 1 mps 753 mmHg 70%
    18:00 +23°C° 0.4 mm 1 mps 753 mmHg 74%
    19:00 +22°C° 0.4 mm 1 mps 752 mmHg 79%
    20:00 +21°C° 0.4 mm 1 mps 752 mmHg 84%
    21:00 +20°C° 0.6 mm 1 mps 752 mmHg 86%
    22:00 +19°C° 0.6 mm 1 mps 752 mmHg 88%
    23:00 +18°C° 0.6 mm 1 mps 752 mmHg 90%

    Day after tomorrow, 22 May, Wednesday

    Time Temperature Precipitation Wind Pressure Humidity
    00:00 +18°C° 0.7 mm 1 mps 752 mmHg 91%
    01:00 +18°C° 0.7 mm 1 mps 752 mmHg 91%
    02:00 +16°C° 0.7 mm 1 mps 752 mmHg 91%
    03:00 +16°C° 0.5 mm 1 mps 752 mmHg 92%
    04:00 +16°C° 0.5 mm 1 mps 752 mmHg 93%
    05:00 +16°C° 0.5 mm 2 mps 751 mmHg 94%
    06:00 +17°C° 0.1 mm 2 mps 751 mmHg 91%
    07:00 +18°C° 0.1 mm 2 mps 751 mmHg 88%
    08:00 +19°C° 0.1 mm 2 mps 751 mmHg 84%
    09:00 +21°C° 0.3 mm 2 mps 751 mmHg 78%
    10:00 +23°C° 0.3 mm 2 mps 750 mmHg 72%
    11:00 +25°C° 0.3 mm 3 mps 750 mmHg 65%
    12:00 +25°C° 0.3 mm 3 mps 750 mmHg 63%
    13:00 +25°C° 0.3 mm 2 mps 750 mmHg 61%
    14:00 +26°C° 0.3 mm 2 mps 750 mmHg 58%
    15:00 +25°C° 0 mm 2 mps 749 mmHg 62%
    16:00 +25°C° 0 mm 2 mps 749 mmHg 65%
    17:00 +24°C° 0 mm 2 mps 749 mmHg 69%
    18:00 +23°C° 0 mm 2 mps 749 mmHg 75%
    19:00 +22°C° 0 mm 1 mps 749 mmHg 80%
    20:00 +20°C° 0 mm 1 mps 749 mmHg 86%
    21:00 +20°C° 0 mm 1 mps 749 mmHg 89%
    22:00 +19°C° 0 mm 1 mps 749 mmHg 91%
    23:00 +18°C° 0 mm 1 mps 749 mmHg 94%

    23 May, Thursday

    Time Temperature Precipitation Wind Pressure Humidity
    00:00 +16°C° 0.5 mm 1 mps 749 mmHg 94%
    01:00 +16°C° 0.5 mm 1 mps 749 mmHg 95%
    02:00 +16°C° 0.5 mm 1 mps 749 mmHg 96%
    03:00 +16°C° 0.5 mm 1 mps 749 mmHg 96%
    04:00 +16°C° 0.5 mm 1 mps 749 mmHg 96%
    05:00 +16°C° 0.5 mm 1 mps 749 mmHg 97%
    06:00 +18°C° 0 mm 1 mps 749 mmHg 93%
    07:00 +20°C° 0 mm 1 mps 749 mmHg 89%
    08:00 +21°C° 0 mm 1 mps 749 mmHg 85%
    09:00 +21°C° 0.4 mm 2 mps 749 mmHg 79%
    10:00 +22°C° 0.4 mm 3 mps 749 mmHg 74%
    11:00 +24°C° 0.4 mm 3 mps 749 mmHg 68%
    12:00 +24°C° 0.1 mm 3 mps 749 mmHg 66%
    13:00 +24°C° 0.1 mm 3 mps 750 mmHg 64%
    14:00 +24°C° 0.1 mm 3 mps 750 mmHg 62%
    15:00 +24°C° 0.1 mm 3 mps 749 mmHg 65%
    16:00 +23°C° 0.1 mm 2 mps 749 mmHg 67%
    17:00 +23°C° 0.1 mm 2 mps 749 mmHg 69%
    18:00 +21°C° 0 mm 2 mps 749 mmHg 74%
    19:00 +20°C° 0 mm 2 mps 749 mmHg 79%
    20:00 +20°C° 0 mm 1 mps 749 mmHg 84%
    21:00 +18°C° 0 mm 2 mps 749 mmHg 86%
    22:00 +17°C° 0 mm 2 mps 750 mmHg 87%
    23:00 +17°C° 0 mm 2 mps 750 mmHg 88%

    24 May, Friday

    Time Temperature Precipitation Wind Pressure Humidity
    00:00 +16°C° 0.3 mm 2 mps 750 mmHg 90%
    01:00 +16°C° 0.3 mm 2 mps 749 mmHg 93%
    02:00 +15°C° 0.3 mm 2 mps 749 mmHg 95%
    03:00 +15°C° 0.3 mm 1 mps 749 mmHg 96%
    04:00 +15°C° 0.3 mm 1 mps 749 mmHg 96%
    05:00 +15°C° 0.3 mm 1 mps 749 mmHg 96%
    06:00 +16°C° 0.3 mm 1 mps 749 mmHg 95%
    07:00 +18°C° 0.3 mm 1 mps 749 mmHg 94%
    08:00 +19°C° 0.3 mm 1 mps 749 mmHg 93%
    09:00 +19°C° 0.4 mm 1 mps 749 mmHg 92%
    10:00 +20°C° 0.4 mm 1 mps 749 mmHg 90%
    11:00 +20°C° 0.4 mm 1 mps 749 mmHg 89%
    12:00 +19°C° 1.1 mm 2 mps 749 mmHg 87%
    13:00 +19°C° 1.1 mm 2 mps 749 mmHg 86%
    14:00 +20°C° 1.1 mm 3 mps 748 mmHg 85%
    15:00 +19°C° 0.7 mm 3 mps 748 mmHg 87%
    16:00 +19°C° 0.7 mm 3 mps 748 mmHg 88%
    17:00 +19°C° 0.7 mm 3 mps 748 mmHg 89%
    18:00 +18°C° 0.1 mm 2 mps 748 mmHg 91%
    19:00 +17°C° 0.1 mm 2 mps 748 mmHg 92%
    20:00 +16°C° 0.1 mm 2 mps 748 mmHg 94%
    21:00 +15°C° 0 mm 2 mps 748 mmHg 93%
    22:00 +14°C° 0 mm 2 mps 748 mmHg 93%
    23:00 +12°C° 0 mm 3 mps 748 mmHg 92%

    25 May, Saturday

    Time Temperature Precipitation Wind Pressure Humidity
    00:00 +11°C° 0 mm 3 mps 748 mmHg 91%
    01:00 +10°C° 0 mm 2 mps 748 mmHg 91%
    02:00 +10°C° 0 mm 2 mps 748 mmHg 90%
    03:00 +10°C° 0 mm 2 mps 748 mmHg 90%
    04:00 +10°C° 0 mm 2 mps 748 mmHg 89%
    05:00 +10°C° 0 mm 2 mps 748 mmHg 89%
    06:00 +12°C° 0 mm 2 mps 748 mmHg 85%
    07:00 +12°C° 0 mm 3 mps 748 mmHg 81%
    08:00 +13°C° 0 mm 3 mps 748 mmHg 78%
    09:00 +14°C° 0 mm 3 mps 748 mmHg 70%
    10:00 +17°C° 0 mm 3 mps 748 mmHg 63%
    11:00 +19°C° 0 mm 3 mps 748 mmHg 56%
    12:00 +19°C° 0 mm 3 mps 747 mmHg 53%
    13:00 +20°C° 0 mm 3 mps 747 mmHg 51%
    14:00 +21°C° 0 mm 2 mps 747 mmHg 48%
    15:00 +20°C° 0 mm 2 mps 747 mmHg 49%
    16:00 +20°C° 0 mm 2 mps 747 mmHg 51%
    17:00 +20°C° 0 mm 2 mps 746 mmHg 52%
    18:00 +19°C° 0 mm 1 mps 746 mmHg 59%
    19:00 +18°C° 0 mm 1 mps 746 mmHg 66%
    20:00 +14°C° 0 mm 0 mps 746 mmHg 72%
    21:00 +14°C° 0 mm 1 mps 746 mmHg 74%
    22:00 +13°C° 0 mm 1 mps 746 mmHg 76%
    23:00 +12°C° 0 mm 1 mps 746 mmHg 77%
    Show more